Location: Iesi
(43.5167°N, 13.2333°E)
Time: 15:55:59
(UTC+00:00)

USA 267 - Pass Details

Date: 08 August 2020
Orbit: 1101 x 1106 km, 123.0° (Epoch: 22 September)

Event Time Altitude Azimuth Distance (km) Brightness Sun altitude
Rises 19:39:16 0° 49° (NE) 3,929 6.0 -13.2°
Reaches altitude 10° 19:41:45 10° 49° (NE) 2,969 5.4 -13.6°
Maximum altitude 19:48:20 89° 319° (NW) 1,110 3.3 -14.5°
Drops below altitude 10° 19:54:54 10° 232° (SW) 2,960 5.7 -15.4°
Sets 19:57:22 0° 232° (SW) 3,916 6.3 -15.8°
